Kecskemet, Hungary

4:35 AM CEST on October 17, 2017 (GMT +0200)
Kecskemet

Weather History for LHKE - November, 2012

Change the Weather History Date:

Monday, November 26, 2012

  Actual Average (LHBP) Record (LHBP)
Temperature  
Mean Temperature 44 °F -  
Max Temperature 48 °F 42 °F 53 °F (2002)
Min Temperature 39 °F 31 °F 23 °F (2004)
Degree Days  
Heating Degree Days 22    
Moisture  
Dew Point 43 °F    
Average Humidity 96    
Maximum Humidity 100    
Minimum Humidity 93    
Precipitation  
Precipitation 0.00 in - - ()
Sea Level Pressure  
Sea Level Pressure 30.07 in    
Wind  
Wind Speed 5 mph ()    
Max Wind Speed 9 mph    
Max Gust Speed -    
Visibility 1.5 miles    
Events Fog    
Averages and records for this station are not official NWS values.
T = Trace of Precipitation, MM = Missing Value Source: Averaged Metar Reports

Daily Weather History Graph

Daily Weather History Graph

Search for Another Location

Airport or City:

Trip Planner

Search our weather history database for the weather conditions in past years. The results will help you decide how hot, cold, wet, or windy it might be!

Date:

Astronomy

Nov. 26, 2012 Rise Set
Actual Time 6:59 AM CET 3:56 PM CET
Civil Twilight 6:25 AM CET 4:30 PM CET
Nautical Twilight 5:47 AM CET 5:08 PM CET
Astronomical Twilight 5:11 AM CET 5:45 PM CET
Moon 2:42 PM CET (11/26) 4:47 AM CET (11/26)
Length of Visible Light 10h 05m
Length of Day
8h 57m
Waxing Gibbous, 96% of the Moon is Illuminated
Nov 26
Waxing Gibbous
Nov 28
Full
Dec 6
Last Quarter
Dec 13
New
Dec 20
First Quarter

Hourly Weather History & Observations

Time (CET) Temp. Windchill Dew Point Humidity Pressure Visibility Wind Dir Wind Speed Gust Speed Precip Events Conditions
12:15 AM 41.0 °F 38.1 °F 41.0 °F 100% 30.15 in 0.7 mi East 4.5 mph - N/A   Overcast
12:45 AM 41.0 °F 38.1 °F 41.0 °F 100% 30.15 in 0.6 mi East 4.5 mph - N/A   Overcast
1:15 AM 39.2 °F - 39.2 °F 100% 30.15 in 0.4 mi East 2.2 mph - N/A Fog Fog
1:36 AM 39.2 °F 36.0 °F 39.2 °F 100% 30.15 in 0.1 mi East 4.5 mph - N/A Fog Fog
1:45 AM 39.2 °F - 39.2 °F 100% 30.15 in 0.1 mi East 2.2 mph - N/A Fog Fog
2:15 AM 39.2 °F - 39.2 °F 100% 30.15 in 0.1 mi ESE 2.2 mph - N/A Fog Fog
2:45 AM 39.2 °F - 39.2 °F 100% 30.12 in 0.1 mi ESE 2.2 mph - N/A Fog Fog
3:15 AM 39.2 °F - 39.2 °F 100% 30.12 in 0.1 mi ENE 2.2 mph - N/A Fog Fog
3:28 AM 39.2 °F - 39.2 °F 100% 30.12 in 0.2 mi East 2.2 mph - N/A Fog Fog
3:45 AM 39.2 °F - 39.2 °F 100% 30.12 in 0.2 mi East 2.2 mph - N/A Fog Fog
4:15 AM 39.2 °F - 39.2 °F 100% 30.12 in 0.3 mi ENE 2.2 mph - N/A Fog Fog
4:21 AM 39.2 °F - 39.2 °F 100% 30.12 in 0.4 mi East 2.2 mph - N/A Fog Fog
4:45 AM 39.2 °F - 39.2 °F 100% 30.12 in 0.4 mi East 2.2 mph - N/A Fog Fog
5:15 AM 39.2 °F - 39.2 °F 100% 30.12 in 0.4 mi Calm Calm - N/A Fog Fog
5:45 AM - - - N/A% - 0.5 mi Variable 2.2 mph - N/A Fog Fog
5:53 AM 41.0 °F 38.1 °F 41.0 °F 100% 30.12 in 0.5 mi ESE 4.5 mph - N/A Fog Fog
6:15 AM 41.0 °F 38.1 °F 41.0 °F 100% 30.12 in 0.7 mi East 4.5 mph - N/A   Mostly Cloudy
6:45 AM 41.0 °F 38.1 °F 41.0 °F 100% 30.12 in 0.7 mi East 4.5 mph - N/A   Mostly Cloudy
7:00 AM - - - N/A% - 0.9 mi SE 6.7 mph - N/A   Mostly Cloudy
7:15 AM 41.0 °F 38.1 °F 41.0 °F 100% 30.12 in 0.6 mi ESE 4.5 mph - N/A   Mostly Cloudy
7:45 AM 41.0 °F 38.1 °F 41.0 °F 100% 30.12 in 0.7 mi East 4.5 mph - N/A   Overcast
8:15 AM 41.0 °F 36.5 °F 41.0 °F 100% 30.12 in 0.7 mi ESE 6.7 mph - N/A   Overcast
8:45 AM - - - N/A% - 1.6 mi SE 6.7 mph - N/A   Mostly Cloudy
9:15 AM 42.8 °F 37.6 °F 42.8 °F 100% 30.12 in 1.2 mi SSE 8.9 mph - N/A   Mostly Cloudy
9:30 AM - - - N/A% - 0.9 mi SE 6.7 mph - N/A   Mostly Cloudy
9:45 AM 42.8 °F 37.6 °F 42.8 °F 100% 30.12 in 1.2 mi SSE 8.9 mph - N/A   Overcast
10:15 AM 44.6 °F 39.8 °F 42.8 °F 93% 30.12 in 1.6 mi SSE 8.9 mph - N/A   Overcast
10:45 AM 44.6 °F 40.8 °F 42.8 °F 93% 30.09 in 1.6 mi SSE 6.7 mph - N/A   Overcast
11:15 AM 44.6 °F 40.8 °F 42.8 °F 93% 30.09 in 1.6 mi SSE 6.7 mph - N/A   Overcast
11:32 AM 44.6 °F 40.8 °F 42.8 °F 93% 30.09 in 1.9 mi SE 6.7 mph - N/A   Overcast
11:45 AM - - - N/A% - 1.9 mi SE 6.7 mph - N/A   Mostly Cloudy
12:15 PM 44.6 °F 40.8 °F 44.6 °F 100% 30.06 in 1.9 mi SE 6.7 mph - N/A   Overcast
12:45 PM 46.4 °F 43.0 °F 44.6 °F 93% 30.06 in 2.2 mi SE 6.7 mph - N/A   Overcast
1:15 PM 46.4 °F 43.0 °F 44.6 °F 93% 30.06 in 2.2 mi SE 6.7 mph - N/A   Overcast
1:45 PM 46.4 °F 43.0 °F 44.6 °F 93% 30.04 in 2.2 mi SE 6.7 mph - N/A   Overcast
2:15 PM 46.4 °F 43.0 °F 44.6 °F 93% 30.04 in 2.2 mi SE 6.7 mph - N/A   Overcast
2:45 PM - - - N/A% - 1.9 mi SE 6.7 mph - N/A   Mostly Cloudy
3:15 PM 48.2 °F - 46.4 °F 93% 30.04 in - SE 8.9 mph - N/A   Overcast
3:45 PM 48.2 °F - 46.4 °F 93% 30.01 in 2.2 mi SE 6.7 mph - N/A   Mostly Cloudy
4:15 PM 48.2 °F - 46.4 °F 93% 30.01 in 2.2 mi SE 6.7 mph - N/A   Overcast
4:45 PM 48.2 °F - 46.4 °F 93% 30.01 in 2.2 mi SE 6.7 mph - N/A   Overcast
5:15 PM 48.2 °F - 46.4 °F 93% 30.01 in 2.2 mi SSE 8.9 mph - N/A   Overcast
5:45 PM - - - N/A% - 1.2 mi SSE 6.7 mph - N/A Fog Light Fog
6:15 PM 48.2 °F - 46.4 °F 93% 30.01 in 2.5 mi SSE 8.9 mph - N/A   Overcast
6:45 PM 48.2 °F - 46.4 °F 93% 30.01 in 2.5 mi SSE 8.9 mph - N/A   Overcast
7:15 PM 48.2 °F - 46.4 °F 93% 29.98 in 2.5 mi SSE 8.9 mph - N/A   Overcast
7:45 PM 48.2 °F - 46.4 °F 93% 29.98 in 2.5 mi SSE 6.7 mph - N/A   Overcast
8:15 PM 48.2 °F - 46.4 °F 93% 29.98 in 2.5 mi SSE 6.7 mph - N/A   Overcast
8:45 PM 48.2 °F - 46.4 °F 93% 29.98 in 2.5 mi SSE 8.9 mph - N/A   Overcast
9:15 PM 48.2 °F - 46.4 °F 93% 29.98 in 2.8 mi SSE 6.7 mph - N/A   Mostly Cloudy
9:25 PM 48.2 °F - 46.4 °F 93% 29.98 in 3.1 mi SSE 6.7 mph - N/A   Mostly Cloudy
9:45 PM 48.2 °F - 46.4 °F 93% 29.98 in 3.1 mi SSE 6.7 mph - N/A   Mostly Cloudy
10:15 PM 46.4 °F 43.0 °F 44.6 °F 93% 29.98 in 3.1 mi SSE 6.7 mph - N/A   Mostly Cloudy
10:45 PM 46.4 °F 43.0 °F 44.6 °F 93% 29.98 in 3.1 mi SSE 6.7 mph - N/A   Mostly Cloudy
11:15 PM 44.6 °F 40.8 °F 42.8 °F 93% 29.95 in 3.1 mi SSE 6.7 mph - N/A   Mostly Cloudy
11:45 PM - - - N/A% - 1.7 mi North - - N/A   Mist